www.pogodaiklimat.ru

Погода и климат >> Архив погоды >> Индия >> Тамилнад >> Памбан


ПОГОДА на Памбане

  • Прогноз погоды на Памбане
  • Монитор погоды на Памбане

АРХИВ ПОГОДЫ на Памбане

Время (UTC), дата Ветер
(напр.,м/с)
 
Видим.   Явления Облачность Т
(С)
Тd
(С)
f
(%)
Тe
(С)
Тes
(С)
Комфортность P
(гПа)
Po
(гПа)
Тmin
(С)
Tmax
(С)
R
(мм)
R24
(мм)
S
(см)
18 16.09 штиль 0 4000 м 8/4 600 м
[Sc diur, vesp Ac trans Ci sp]
+29.0 +25.8 83 +43 +43 опасность
перегрева
1008.0 1006.7
21 16.09 Ю 2 4000 м 8/4 600 м
[Sc Ac trans]
+28.8 +23.9 75 +40 +40 очень
душно
1006.5 1005.2
00 17.09 штиль 0 4000 м 9/3 600 м
[Sc Ac As]
+27.4 +24.5 84 +39 +39 очень
душно
1006.6 1005.3
03 17.09 штиль 0 10 км 8/5 600 м
[Sc diur, vesp Ac trans]
+29.2 +23.7 72 +40 +43 очень
душно
1008.4 1007.1 +26.6 +32.2
06 17.09 Ю 1 10 км 6/4 600 м
[Sc Ci sp]
+31.6 +25.7 71 +47 +60 опасность
перегрева
1008.0 1006.8
09 17.09 Ю 2 10 км 8/4 600 м
[Sc Ac trans Ci sp]
+32.4 +25.1 65 +46 +52 опасность
перегрева
1005.7 1004.5
12 17.09 Ю 3 10 км 8/3 600 м
[Sc Ac trans Ci sp]
+30.6 +25.8 76 +46 +46 опасность
перегрева
1004.6 1003.4 +32.6
15 17.09 Ю 3 4000 м 4/3 600 м
[Sc Ac trans]
+29.2 +26.1 83 +44 +44 опасность
перегрева
1006.4 1005.1
18 17.09 Ю 3 4000 м 6/4 600 м
[Sc Ac trans]
+28.8 +26.3 86 +44 +44 опасность
перегрева
1006.5 1005.2
21 17.09 Ю 3 4000 м 9/4 600 м
[Sc Ac trans]
+28.8 +26.0 85 +43 +43 опасность
перегрева
1005.3 1004.0
00 18.09 штиль 0 4000 м в посл. час дождь 8/4 600 м
[Sc Ac trans Ci sp]
+28.4 +25.6 85 +42 +42 опасность
перегрева
1006.3 1005.0 1
03 18.09 штиль 0 10 км 9/4 600 м
[Sc Ac trans Ci sp]
+29.4 +25.1 78 +43 +46 опасность
перегрева
1008.8 1007.5 +27.1 +32.6 1
06 18.09 Ю 2 10 км 9/4 600 м
[Sc Ac trans Ci fib]
+30.6 +25.8 76 +46 +53 опасность
перегрева
1008.4 1007.2
09 18.09 З 2 10 км 8/4 600 м
[Sc As op]
+31.0 +25.4 72 +45 +49 опасность
перегрева
1006.0 1004.8
12 18.09 ЮЗ 4 10 км 8/3 600 м
[Sc Ac trans Ci fib]
+29.4 +25.4 79 +43 +43 опасность
перегрева
1005.9 1004.6 +31.4
15 18.09 Ю 3 4000 м 3/1 600 м
[Sc As trans]
+28.8 +25.4 82 +42 +42 опасность
перегрева
1007.6 1006.3
18 18.09 З 3 4000 м 8/0 1500 м
[As op Ci sp]
+28.6 +25.5 83 +42 +42 опасность
перегрева
1008.3 1007.0
21 18.09 З 3 4000 м 8/3 600 м
[Sc Ac und Ci fib]
+28.4 +25.6 85 +42 +42 опасность
перегрева
1007.2 1005.9
00 19.09 З 3 4000 м 10/3 600 м
[Sc As op Ci fib]
+28.2 +25.4 85 +41 +41 опасность
перегрева
1007.4 1006.1
03 19.09 ЮЗ 2 10 км 6/4 600 м
[Sc Ac und Ci fib]
+29.8 +25.3 77 +44 +47 опасность
перегрева
1009.0 1007.7 +27.6 +31.4
06 19.09 З 2 10 км 8/4 600 м
[Sc Ac und Ci fib]
+32.4 +26.0 69 +48 +56 опасность
перегрева
1009.0 1007.8
09 19.09 Ю 4 10 км 6/3 600 м
[Cu med, cong As op Ci fib]
+32.4 +25.7 68 +48 +53 опасность
перегрева
1005.9 1004.7
12 19.09 ЮЗ 3 10 км 9/3 600 м
[Sc Ac As Ci sp]
+29.8 +25.9 80 +45 +45 опасность
перегрева
1007.4 1006.1 +32.7
15 19.09 З 3 4000 м 8/3 600 м
[Sc Ac trans Ci fib]
+29.2 +26.1 83 +44 +44 опасность
перегрева
1009.2 1007.9
18 19.09 З 3 4000 м 8/1 600 м
[Sc Ac As]
+28.8 +26.3 86 +44 +44 опасность
перегрева
1008.6 1007.3
21 19.09 Ю 2 4000 м 5/0 1500 м
[Ac trans]
+28.8 +25.7 83 +43 +43 опасность
перегрева
1007.0 1005.7
00 20.09 Ю 2 4000 м 9/3 600 м
[Sc Ac trans Ci fib]
+28.4 +25.0 82 +41 +41 опасность
перегрева
1007.6 1006.3
03 20.09 ЮЗ 2 10 км 8/3 600 м
[Sc Ac lent]
+30.0 +25.2 76 +44 +46 опасность
перегрева
1010.2 1008.9 +27.9 +32.7
06 20.09 Ю 2 10 км 6/3 600 м
[Sc As op]
+32.0 +24.9 66 +45 +55 опасность
перегрева
1009.0 1007.8
09 20.09 ЮЗ 2 10 км 5/3 600 м
[Sc Ac As]
+32.4 +25.4 67 +47 +55 опасность
перегрева
1006.7 1005.5
12 20.09 ЮЗ 3 10 км 6/3 600 м
[Cu med, cong Ac lent Ci sp]
+30.0 +25.8 78 +45 +45 опасность
перегрева
1006.9 1005.6 +33.0
15 20.09 З 3 4000 м 8/3 600 м
[Sc Ac trans Ci fib]
+29.2 +26.1 83 +44 +44 опасность
перегрева
1008.8 1007.5
18 20.09 З 3 4000 м 8/1 600 м
[Sc Ac trans]
+28.8 +25.1 80 +42 +42 опасность
перегрева
1008.3 1007.0
21 20.09 З 2 4000 м 6/3 600 м
[Sc Ac cuf]
+28.8 +25.1 80 +42 +42 опасность
перегрева
1007.4 1006.1
00 21.09 Ю 2 4000 м 6/3 600 м
[Cu med, cong Ac cuf]
+28.6 +25.2 82 +42 +42 опасность
перегрева
1007.3 1006.0
03 21.09 Ю 2 10 км 4/3 600 м
[Sc Ac trans]
+30.0 +25.5 77 +44 +48 опасность
перегрева
1009.0 1007.7 +27.9 +33.0
06 21.09 Ю 2 10 км 5/3 600 м
[Sc Ac cuf]
+32.6 +25.9 68 +48 +60 опасность
перегрева
1007.9 1006.7
09 21.09 Ю 3 10 км 6/1 600 м
[Sc Ac cuf Ci fib]
+32.8 +25.8 67 +48 +57 опасность
перегрева
1005.3 1004.1
12 21.09 Ю 2 10 км 6/1 600 м
[St As op Ci fib]
+30.0 +25.8 78 +45 +45 опасность
перегрева
1005.9 1004.6 +33.3
15 21.09 нст 4 4000 м 6/3 600 м
[Sc Ac cuf]
+29.2 +25.2 79 +42 +42 опасность
перегрева
1008.2 1006.9
18 21.09 З 3 4000 м зарница 5/3 600 м
[Sc Ac trans]
+28.8 +25.4 82 +42 +42 опасность
перегрева
1008.8 1007.5
21 21.09 З 3 4000 м 8/1 600 м
[Cu med, cong Ac trans]
+28.6 +25.5 83 +42 +42 опасность
перегрева
1006.4 1005.1
00 22.09 Ю 2 4000 м 8/3 600 м
[Sc Ac trans]
+28.6 +25.8 85 +43 +43 опасность
перегрева
1006.4 1005.1
03 22.09 Ю 3 10 км 8/3 600 м
[Sc Ac trans Ci sp]
+29.8 +25.9 80 +45 +47 опасность
перегрева
1008.8 1007.5 +28.0 +33.3
06 22.09 З 2 10 км 5/1 600 м
[Sc Ac trans Ci sp]
+32.2 +25.1 66 +46 +61 опасность
перегрева
1008.4 1007.2
09 22.09 Ю 3 10 км 5/3 600 м
[Sc diur, vesp Ac trans]
+32.8 +25.8 67 +48 +56 опасность
перегрева
1005.4 1004.2
12 22.09 Ю 2 10 км 6/3 600 м
[Sc Ac trans]
+30.6 +26.4 78 +47 +47 опасность
перегрева
1006.2 1005.0 +33.1
15 22.09 Ю 2 4000 м зарница 8/3 600 м
[Sc Ac trans]
+29.4 +26.0 82 +44 +44 опасность
перегрева
1009.1 1007.8
18 22.09 Ю 2 4000 м 8/3 600 м
[Sc Ac trans]
+29.4 +26.3 83 +45 +45 опасность
перегрева
1009.6 1008.3
21 22.09 З 2 4000 м 6/3 600 м
[Sc Ac trans]
+29.2 +26.3 84 +44 +44 опасность
перегрева
1007.3 1006.0
00 23.09 штиль 0 4000 м 4/1 600 м
[Sc Ac lent]
+28.6 +25.8 85 +43 +43 опасность
перегрева
1007.9 1006.6
03 23.09 штиль 0 10 км 5/3 600 м
[Sc Ac trans]
+29.4 +25.1 78 +43 +48 опасность
перегрева
1009.5 1008.2 +27.6 +33.1
06 23.09 штиль 0 10 км 9/3 600 м
[Sc Ac trans Ci fib]
+31.0 +26.0 75 +46 +58 опасность
перегрева
1009.2 1008.0
09 23.09 Ю 2 10 км 9/3 600 м
[Sc Ac trans]
+32.0 +25.5 69 +47 +52 опасность
перегрева
1005.7 1004.5
12 23.09 Ю 3 10 км 9/3 600 м
[Sc Ac trans]
+30.0 +25.2 76 +44 +44 опасность
перегрева
1006.9 1005.6 +32.0
15 23.09 Ю 2 4000 м зарница 6/1 600 м
[Sc Ac trans]
+29.2 +26.4 85 +45 +45 опасность
перегрева
1008.8 1007.5

 

Местоположение метеостанции Памбан (Тамилнад, Индия): широта 9.28 долгота 79.22 высота над уровнем моря 11 м.

В архиве по умолчанию представлена погода на Памбане за последнюю неделю. Архивные данные за месяц целиком и за предыдущие месяцы, начиная с января 2011 года, Вы можете получить, выбрав интересующий диапазон дат из раскрывающегося списка и нажав кнопку "Ввод!".


*Определитесь, кто Вы:
робот инопланетянин человек

Внимание! Время в таблицах - всемирное. Для получения местного времени необходимо прибавить поправку, которая равна 5.5 ч.

Смотрите также архив погоды в соседних городах и на ближайших метеорологических станциях:

Погода в Тонди (Тамилнад, Индия) (54 км)
Погода в Маннаре (Шри Ланка) (84 км)
Погода в Джафне (Шри Ланка) (97 км)
Погода в Адирампаттинаме (Тамилнад, Индия) (118 км)
Погода в Тутикорине (Тамилнад, Индия) (129 км)
Погода в Ковилангуламе (Тамилнад, Индия) (129 км)
Погода в Кудумиянмалае (Тамилнад, Индия) (138 км)
Погода в Мадурай аэропорту (Тамилнад, Индия) (139 км)
Погода в Мадурае (Тамилнад, Индия) (140 км)
Погода в Вавунии (Шри Ланка) (152 км)

Пояснения к столбцам:

Ветер - указаны скорость ветра в м/с - средняя за 10 мин, порывы в срок и между сроками (в фигурных скобках) и направление, откуда дует ветер: С - северный, СВ - северо-восточный, В - восточный, ЮВ - юго-восточный, Ю - южный, ЮЗ - юго-западный, З - западный, СЗ - северо-западный.
Видимость - горизонтальная дальность видимости в метрах или километрах. При видимости от 1 до 10 км при отсутствии осадков обычно наблюдается дымка, при ухудшении видимости до 1 км и менее - туман. В сухую погоду видимость может ухудшаться дымом, пылью или мглою.
Явления - указаны атмосферные явления, наблюдавшиеся в срок или в последний час перед сроком; фигурными скобками обозначены явления, наблюдавшиеся между сроками (за 1-3 часа до срока); квадратными скобками обозначены град или гололедные отложения с указанием их диаметра в мм.
Облачность - указаны через наклонную черту общая и нижняя облачность в баллах и высота нижней границы облаков в метрах; квадратными скобками обозначены формы облаков: Ci - перистые, Cs - перисто-слоистые, Cc - перисто-кучевые, Ac - высококучевые, As - высокослоистые, Sc - слоисто-кучевые, Ns - слоисто-дождевые, Cu - кучевые, Cb - кучево-дождевые. Подробнее классификацию облаков см. в Атласе облаков (PDF).
T - Температура воздуха - температура, измеренная на высоте 2 м над землей.
Td - Температура точки росы - температура, при понижении до которой содержащийся в воздухе водяной пар достигнет насыщения.
f - Относительная влажность воздуха - влажноcть воздуха, измеренная на высоте 2 м над землей.
Te - Эффективная температура - температура, которую ощущает одетый по сезону человек в тени. Характеристика душности погоды. При расчете учитывается влияние влажности воздуха и скорости ветра на теплоощущения человека.
Tes - Эффективная температура на солнце - температура, которую ощущает человек, с поправкой на солнечный нагрев. Характеристика знойности погоды. Зависит от высоты солнца над горизонтом, облачности и скорости ветра. Ночью, в пасмурную погоду, а также при ветре 12 м/с и более поправка равна нулю.
P - Атмосферное давление - приведенное к уровню моря атмосферное давление.
Po - Атмосферное давление - измеренное на уровне метеостанции атмосферное давление.
Tmin - Минимальная температура - минимум температуры воздуха на высоте 2 м над землей.
Tmax - Максимальная температура - максимум температуры воздуха на высоте 2 м над землей.
R - Количество осадков - Количество выпавших осадков за период времени, мм. При наведении курсора мыши на число - период времени, за который выпало указанное количество осадков.
R24 - Количество осадков - Количество выпавших осадков за 24 часа, мм.
S - Снежный покров - Высота снежного покрова, см. При наведении курсора мыши на число - состояние снежного покрова и степень покрытия местности в баллах.